Regional Weather Roundup
Issued by NWS Newport/Morehead, NC

Current Version | Previous Version | Graphics & Text | Print | Product List | Glossary Off
Versions: 1 2 3 4 5 6 7 8 9 10 11 12 13 14 15 16 17 18 19 20 21 22 23 24 25 26 27 28 29 30 31 32 33 34 35 36 37 38 39 40 41 42 43 44 45 46 47 48 49 50

000
ASUS42 KMHX 202310
RWRMHX
WEATHER ROUNDUP FOR EASTERN NORTH CAROLINA
NATIONAL WEATHER SERVICE NEWPORT/MOREHEAD CITY NC
700 PM EDT SUN APR 20 2014

NOTE: "FAIR" INDICATES FEW OR NO CLOUDS BELOW 12,000 FEET
WITH NO SIGNIFICANT WEATHER AND/OR OBSTRUCTIONS TO VISIBILITY

NCZ015>017-031-032-045>047-102-103-210000-
NORTH COAST

CITY           SKY/WX    TMP DP  RH WIND       PRES   REMARKS
EDENTON        CLOUDY    53  43  70 NE16G22   30.20F
ELIZABETH CITY CLOUDY    49  42  77 N22G31    30.21F
KITTY HAWK     RAIN      47  46  95 N13G29    30.16S
MANTEO         CLOUDY    47  46  95 NE23G33   30.16R

$$

NCZ045>047-081-094-103-104-210000-
CENTRAL COAST

CITY           SKY/WX    TMP DP  RH WIND       PRES   REMARKS
FRISCO         LGT RAIN  50  50 100 NE18G32   30.07F FOG
SWANQUARTER      N/A     52 N/A N/A VRB20G33  30.09S

$$

NCZ095-097-098-100-101-210000-
SOUTHERN COAST

CITY           SKY/WX    TMP DP  RH WIND       PRES   REMARKS
BEAUFORT       LGT RAIN  54  52  93 NE29G40   30.05F
CEDAR ISLAND     N/A     55 N/A N/A N36       30.12F
JACKSONVILLE   CLOUDY    55  55 100 N26G37    30.07F
NEWPORT          N/A     54  52  94 VRB13G23    N/A
PINEY ISLAND   CLOUDY    56  32  40 N29G43    30.07F
WILMINGTON     CLOUDY    57  52  83 N23G37    30.06S


$$

NCZ011>013-027>030-043-044-078>080-089-090>093-098-210000-
COASTAL PLAIN

CITY           SKY/WX    TMP DP  RH WIND       PRES   REMARKS
AHOSKIE        MOCLDY    55  33  42 NE12G21   30.24F
CLINTON        CLOUDY    59  46  60 NE15G24   30.15F
ELIZABETHTOWN  CLOUDY    59  48  67 N6G17     30.13F
GOLDSBORO      CLOUDY    59  45  58 N12G24    30.15F
GREENVILLE     CLOUDY    57  41  54 NE15G24   30.19F
HAVELOCK       CLOUDY    53  50  89 NE24G35   30.09F
KENANSVILLE    CLOUDY    58  46  66 N21G30    30.15F
KINSTON        CLOUDY    57  45  62 N17       30.16
NEW BERN       CLOUDY    55  50  83 N17G31    30.13F
RICHLANDS      CLOUDY    54  54 100 N17G29    30.12S
ROANOKE RAPIDS NOT AVBL
ROCKY MOUNT    CLOUDY    59  38  45 NE10      30.21F
WASHINGTON     CLOUDY    54  47  76 NE14G24   30.17F
WHITEVILLE     CLOUDY    60  51  71 N9G21     30.09F

$$

AMZ130-135-150-152-154-156-158-170-250-252-270-ANZ085-086-088-633-658-670-210000-
MARINE OBSERVATIONS

STATION/POSITION TIME  TEMP    WIND        PRES    WAVE   SWELL
                       AIR SEA DIR/SP/G            HT/PER HT/PER
                 (UTC) (F)     (DEG/KT/KT) (MB)    (FT/S) (FT/S)
CHESAPEAKE LIGHT 2200   46      30/ 29/ 31 1024.3
BUOY 44014       2300   49 49   10/ 23/ 27 1021.2   13/12  10/12
DUCK             2300   48 49   20/ 29/ 35 1020.9
2E DUCK          2300      48                N/A    12/12   7/12
OREGON INLET     2300   48 51  360/ 19/ 27 1020.5
BUOY 44095       2300      48                N/A    16/13  11/13
HATTERAS CG      2300   53 55   10/ 16/ 28 1018.4
DIAMOND BUOY     2300   61 76   10/ 29/ 35 1015.3   16/11  11/11
CAPE LOOKOUT     2200   54      10/ 27/ 32 1017.1
BEAUFORT LAB     2300   54 57   20/ 24/ 30 1017.1
30 SE NEW RIVER  2200   58 66   30/ 35/ 43 1014.6
5 SE WRIGHTSVILL 2200   58 58   20/ 23/ 31 1015.4
FRYING PAN BUOY  2300   60 68   30/ 35/ 43 1013.6   12/ 7   2/11
BUOY 41001       NOT AVBL
BUOY 41002       NOT AVBL
BUOY 41004       NOT AVBL

$$



USA.gov is the U.S. government's official web portal to all federal, state and local government web resources and services.